Greenwood, SC

4:37 PM EDT on May 29, 2017 (GMT -0400)
Greenwood County

Weather History for KGRD - August, 2014

Change the Weather History Date:

Thursday, August 28, 2014

  Actual Average (KAND) Record (KAND)
Temperature  
Mean Temperature 78 °F -  
Max Temperature 97 °F 88 °F 98 °F (1954)
Min Temperature 60 °F 67 °F 59 °F (1968)
Cooling Degree Days 12    
Growing Degree Days 28 (Base 50)    
Moisture  
Dew Point 56 °F    
Average Humidity 55    
Maximum Humidity 86    
Minimum Humidity 23    
Precipitation  
Precipitation 0.00 in - - ()
Sea Level Pressure  
Sea Level Pressure 30.01 in    
Wind  
Wind Speed 1 mph (NNW)    
Max Wind Speed 6 mph    
Max Gust Speed -    
Visibility 10 miles    
Events      
Averages and records for this station are not official NWS values.
T = Trace of Precipitation, MM = Missing Value Source: NWS Daily Summary

Daily Weather History Graph

Daily Weather History Graph

Search for Another Location

Airport or City:

Trip Planner

Search our weather history database for the weather conditions in past years. The results will help you decide how hot, cold, wet, or windy it might be!

Date:

Astronomy

Aug. 28, 2014 Rise Set
Actual Time 6:59 AM EDT 7:59 PM EDT
Civil Twilight 6:33 AM EDT 8:25 PM EDT
Nautical Twilight 6:02 AM EDT 8:56 PM EDT
Astronomical Twilight 5:31 AM EDT 9:27 PM EDT
Moon 9:41 AM EDT (8/28) 9:33 PM EDT (8/28)
Length of Visible Light 13h 52m
Length of Day
13h 00m
Waxing Crescent, 8% of the Moon is Illuminated
Aug 28
Waxing Crescent
Sep 2
First Quarter
Sep 8
Full
Sep 15
Last Quarter
Sep 24
New

Hourly Weather History & Observations

Time (EDT) Temp. Heat Index Dew Point Humidity Pressure Visibility Wind Dir Wind Speed Gust Speed Precip Events Conditions
12:56 AM 62.1 °F - 55.9 °F 80% 30.03 in 10.0 mi Calm Calm - N/A   Clear
1:56 AM 61.0 °F - 55.0 °F 81% 30.02 in 10.0 mi Calm Calm - N/A   Clear
2:56 AM 61.0 °F - 55.9 °F 83% 30.01 in 10.0 mi Calm Calm - N/A   Clear
3:56 AM 61.0 °F - 55.9 °F 83% 30.01 in 10.0 mi Calm Calm - N/A   Clear
4:56 AM 60.1 °F - 55.9 °F 86% 30.02 in 10.0 mi Calm Calm - N/A   Clear
5:56 AM 60.1 °F - 55.9 °F 86% 30.03 in 10.0 mi Calm Calm - N/A   Clear
6:56 AM 60.1 °F - 55.9 °F 86% 30.04 in 10.0 mi Calm Calm - N/A   Clear
7:56 AM 64.0 °F - 57.9 °F 80% 30.05 in 10.0 mi Calm Calm - N/A   Clear
8:56 AM 73.9 °F - 55.0 °F 52% 30.06 in 10.0 mi West 3.5 mph - N/A   Clear
9:56 AM 81.0 °F 81.1 °F 57.9 °F 45% 30.06 in 10.0 mi NW 3.5 mph - N/A   Clear
10:56 AM 86.0 °F 84.2 °F 54.0 °F 33% 30.06 in 10.0 mi Calm Calm - N/A   Clear
11:56 AM 89.1 °F 87.1 °F 55.0 °F 31% 30.05 in 10.0 mi Variable 4.6 mph - N/A   Clear
12:56 PM 90.0 °F 88.1 °F 55.9 °F 31% 30.04 in 10.0 mi Variable 3.5 mph - N/A   Clear
1:56 PM 91.9 °F 90.0 °F 55.0 °F 29% 30.01 in 10.0 mi Variable 3.5 mph - N/A   Clear
2:56 PM 93.9 °F 91.7 °F 54.0 °F 26% 29.99 in 10.0 mi North - - N/A   Clear
3:56 PM 93.9 °F 91.4 °F 53.1 °F 25% 29.97 in 10.0 mi Calm Calm - N/A   Clear
4:56 PM 95.0 °F 92.5 °F 53.1 °F 24% 29.96 in 10.0 mi Calm Calm - N/A   Clear
5:56 PM 95.0 °F - 52.0 °F 23% 29.96 in 10.0 mi NE 5.8 mph - N/A   Clear
6:56 PM 93.9 °F 91.4 °F 53.1 °F 25% 29.96 in 10.0 mi Calm Calm - N/A   Clear
7:56 PM 84.9 °F 84.4 °F 59.0 °F 41% 29.97 in 10.0 mi Calm Calm - N/A   Clear
8:56 PM 79.0 °F - 61.0 °F 54% 29.99 in 10.0 mi Calm Calm - N/A   Clear
9:56 PM 75.0 °F - 63.0 °F 66% 30.01 in 10.0 mi Calm Calm - N/A   Clear
10:56 PM 73.9 °F - 63.0 °F 68% 30.01 in 10.0 mi Calm Calm - N/A   Clear
11:56 PM 72.0 °F - 63.0 °F 73% 30.02 in 10.0 mi Calm Calm - N/A   Clear